Time,TemperatureF,DewpointF,PressureIn,WindDirection,WindDirectionDegrees,WindSpeedMPH,WindSpeedGustMPH,Humidity,HourlyPrecipIn,Conditions,Clouds,dailyrainin,SoftwareType,DateUTC
2013-04-07 00:03:00,31.0,17.0,30.33,North,352,0.0,2.0,56,0.00,,,0.01,,2013-04-07 04:03:00,
2013-04-07 00:15:00,31.0,17.0,30.33,North,352,0.0,2.0,56,0.00,,,0.01,,2013-04-07 04:15:00,
2013-04-07 00:23:00,31.0,17.0,30.33,East,80,0.0,2.0,56,0.00,,,0.01,,2013-04-07 04:23:00,
2013-04-07 00:32:00,31.0,17.0,30.33,East,90,0.0,3.0,56,0.00,,,0.01,,2013-04-07 04:32:00,
2013-04-07 00:43:00,31.0,17.0,30.33,East,90,0.0,3.0,56,0.00,,,0.01,,2013-04-07 04:43:00,
2013-04-07 00:52:00,30.0,17.0,30.34,ESE,121,0.0,2.0,59,0.00,,,0.01,,2013-04-07 04:52:00,
2013-04-07 01:02:00,28.0,17.0,30.34,SSE,167,0.0,1.0,62,0.00,,,0.01,,2013-04-07 05:02:00,
2013-04-07 01:12:00,28.0,17.0,30.34,SSE,167,0.0,1.0,62,0.00,,,0.01,,2013-04-07 05:12:00,
2013-04-07 01:23:00,26.0,16.0,30.34,SSE,167,0.0,0.0,66,0.00,,,0.01,,2013-04-07 05:23:00,
2013-04-07 01:33:00,26.0,16.0,30.34,SSE,165,0.0,1.0,65,0.00,,,0.01,,2013-04-07 05:33:00,
2013-04-07 01:43:00,26.0,16.0,30.34,SSE,165,0.0,1.0,65,0.00,,,0.01,,2013-04-07 05:43:00,
2013-04-07 01:52:00,25.0,16.0,30.34,SSE,165,0.0,0.0,68,0.00,,,0.01,,2013-04-07 05:52:00,
2013-04-07 02:02:00,25.0,17.0,30.34,SSE,166,0.0,1.0,70,0.00,,,0.01,,2013-04-07 06:02:00,
2013-04-07 02:12:00,25.0,17.0,30.34,SSE,166,0.0,1.0,70,0.00,,,0.01,,2013-04-07 06:12:00,
2013-04-07 02:22:00,24.0,17.0,30.34,SSE,167,0.0,1.0,73,0.00,,,0.01,,2013-04-07 06:22:00,
2013-04-07 02:32:00,24.0,17.0,30.34,SSE,167,0.0,1.0,73,0.00,,,0.01,,2013-04-07 06:32:00,
2013-04-07 02:43:00,24.0,17.0,30.34,SSE,167,0.0,1.0,73,0.00,,,0.01,,2013-04-07 06:43:00,
2013-04-07 02:52:00,24.0,17.0,30.34,SSE,167,0.0,1.0,73,0.00,,,0.01,,2013-04-07 06:52:00,
2013-04-07 04:23:00,27.0,13.0,30.31,ENE,59,3.0,4.0,56,0.00,,,0.00,,2013-04-07 08:23:00,
2013-04-07 04:33:00,27.0,13.0,30.31,ENE,59,3.0,4.0,56,0.00,,,0.00,,2013-04-07 08:33:00,
2013-04-07 04:43:00,27.0,13.0,30.31,ENE,59,3.0,4.0,56,0.00,,,0.00,,2013-04-07 08:43:00,
2013-04-07 04:53:00,27.0,13.0,30.31,ENE,59,3.0,4.0,56,0.00,,,0.00,,2013-04-07 08:53:00,
2013-04-07 05:02:00,26.0,16.0,30.32,ENE,59,1.0,3.0,66,0.00,,,0.00,,2013-04-07 09:02:00,
2013-04-07 05:13:00,26.0,16.0,30.32,ENE,59,1.0,3.0,66,0.00,,,0.00,,2013-04-07 09:13:00,
2013-04-07 05:23:00,26.0,15.0,30.31,ENE,59,0.0,2.0,62,0.00,,,0.00,,2013-04-07 09:23:00,
2013-04-07 05:43:00,27.0,16.0,30.31,ENE,59,1.0,3.0,62,0.00,,,0.00,,2013-04-07 09:43:00,
2013-04-07 05:53:00,28.0,16.0,30.32,ENE,59,0.0,4.0,60,0.00,,,0.00,,2013-04-07 09:53:00,
2013-04-07 06:04:00,28.0,15.0,30.32,East,95,3.0,7.0,58,0.00,,,0.00,,2013-04-07 10:04:00,
2013-04-07 06:14:00,28.0,15.0,30.32,East,95,3.0,7.0,58,0.00,,,0.00,,2013-04-07 10:14:00,
2013-04-07 06:23:00,29.0,14.0,30.31,East,99,3.0,6.0,54,0.00,,,0.00,,2013-04-07 10:23:00,
2013-04-07 06:43:00,30.0,15.0,30.32,SE,131,4.0,8.0,52,0.00,,,0.00,,2013-04-07 10:43:00,
2013-04-07 06:53:00,30.0,15.0,30.32,SSE,147,4.0,8.0,54,0.00,,,0.00,,2013-04-07 10:53:00,
2013-04-07 07:03:00,32.0,17.0,30.32,SSE,164,3.0,7.0,53,0.00,,,0.00,,2013-04-07 11:03:00,
2013-04-07 07:13:00,32.0,17.0,30.32,SSE,164,3.0,7.0,53,0.00,,,0.00,,2013-04-07 11:13:00,
2013-04-07 07:23:00,33.0,17.0,30.32,SE,140,6.0,12.0,51,0.00,,,0.00,,2013-04-07 11:23:00,
2013-04-07 07:33:00,34.0,18.0,30.32,SSE,155,4.0,11.0,52,0.00,,,0.00,,2013-04-07 11:33:00,
2013-04-07 07:43:00,34.0,18.0,30.32,SSE,155,4.0,11.0,52,0.00,,,0.00,,2013-04-07 11:43:00,
2013-04-07 07:52:00,35.0,18.0,30.32,SSE,152,3.0,13.0,50,0.00,,,0.00,,2013-04-07 11:52:00,
2013-04-07 08:03:00,36.0,18.0,30.32,SE,140,5.0,16.0,48,0.00,,,0.00,,2013-04-07 12:03:00,
2013-04-07 08:12:00,36.0,18.0,30.32,SE,140,5.0,16.0,48,0.00,,,0.00,,2013-04-07 12:12:00,
2013-04-07 08:23:00,37.0,19.0,30.32,SSW,194,4.0,11.0,47,0.00,,,0.00,,2013-04-07 12:23:00,
2013-04-07 08:34:00,36.0,19.0,30.33,South,172,4.0,11.0,50,0.00,,,0.00,,2013-04-07 12:34:00,
2013-04-07 08:43:00,36.0,19.0,30.33,South,172,4.0,11.0,50,0.00,,,0.00,,2013-04-07 12:43:00,
2013-04-07 08:53:00,36.0,19.0,30.33,SSW,195,5.0,10.0,50,0.00,,,0.00,,2013-04-07 12:53:00,
2013-04-07 09:05:00,36.0,21.0,30.33,SSW,212,5.0,13.0,53,0.00,,,0.00,,2013-04-07 13:05:00,
2013-04-07 09:13:00,36.0,21.0,30.33,SSW,212,5.0,13.0,53,0.00,,,0.00,,2013-04-07 13:13:00,
2013-04-07 09:23:00,36.0,21.0,30.33,SSE,155,4.0,10.0,53,0.00,,,0.00,,2013-04-07 13:23:00,
2013-04-07 09:33:00,36.0,21.0,30.34,SW,234,5.0,12.0,54,0.00,,,0.00,,2013-04-07 13:33:00,
2013-04-07 09:42:00,36.0,21.0,30.34,SW,234,5.0,12.0,54,0.00,,,0.00,,2013-04-07 13:42:00,
2013-04-07 09:52:00,37.0,22.0,30.33,SW,215,5.0,11.0,54,0.00,,,0.00,,2013-04-07 13:52:00,
2013-04-07 10:02:00,37.0,22.0,30.33,SSE,156,7.0,12.0,54,0.00,,,0.00,,2013-04-07 14:02:00,
2013-04-07 10:12:00,37.0,22.0,30.33,SSE,156,7.0,12.0,54,0.00,,,0.00,,2013-04-07 14:12:00,
2013-04-07 10:23:00,38.0,23.0,30.32,SW,219,10.0,17.0,54,0.00,,,0.00,,2013-04-07 14:23:00,
2013-04-07 10:33:00,38.0,23.0,30.32,WSW,246,11.0,20.0,55,0.00,,,0.00,,2013-04-07 14:33:00,
2013-04-07 10:44:00,38.0,23.0,30.32,WSW,246,11.0,20.0,55,0.00,,,0.00,,2013-04-07 14:44:00,
2013-04-07 10:53:00,40.0,25.0,30.32,SW,217,7.0,16.0,54,0.00,,,0.00,,2013-04-07 14:53:00,
2013-04-07 11:03:00,39.0,25.0,30.31,SW,225,14.0,20.0,57,0.00,,,0.00,,2013-04-07 15:03:00,
2013-04-07 11:13:00,40.0,26.0,30.30,SW,235,12.0,19.0,57,0.00,,,0.00,,2013-04-07 15:13:00,
2013-04-07 11:22:00,40.0,26.0,30.30,SW,235,12.0,19.0,57,0.00,,,0.00,,2013-04-07 15:22:00,
2013-04-07 11:35:00,40.0,28.0,30.29,SSW,211,14.0,26.0,61,0.00,,,0.00,,2013-04-07 15:35:00,
2013-04-07 11:45:00,40.0,28.0,30.29,SSW,211,14.0,26.0,61,0.00,,,0.00,,2013-04-07 15:45:00,
2013-04-07 11:53:00,40.0,28.0,30.29,SW,217,15.0,25.0,61,0.00,,,0.00,,2013-04-07 15:53:00,
2013-04-07 12:05:00,41.0,29.0,30.28,SSW,206,11.0,23.0,62,0.00,,,0.00,,2013-04-07 16:05:00,
2013-04-07 12:14:00,41.0,29.0,30.28,SSW,206,11.0,23.0,62,0.00,,,0.00,,2013-04-07 16:14:00,
2013-04-07 12:25:00,42.0,30.0,30.26,SW,220,16.0,24.0,61,0.00,,,0.00,,2013-04-07 16:25:00,
2013-04-07 12:34:00,42.0,31.0,30.25,SSE,165,15.0,25.0,64,0.00,,,0.00,,2013-04-07 16:34:00,
2013-04-07 12:43:00,42.0,31.0,30.25,SSE,165,15.0,25.0,64,0.00,,,0.00,,2013-04-07 16:43:00,
2013-04-07 12:53:00,41.0,29.0,30.23,SSW,205,16.0,26.0,63,0.00,,,0.00,,2013-04-07 16:53:00,
2013-04-07 13:05:00,42.0,31.0,30.22,SW,214,15.0,26.0,65,0.00,,,0.00,,2013-04-07 17:05:00,
2013-04-07 13:13:00,42.0,31.0,30.22,SW,214,15.0,26.0,65,0.00,,,0.00,,2013-04-07 17:13:00,
2013-04-07 13:33:00,42.0,31.0,30.21,SSW,212,16.0,24.0,66,0.00,,,0.00,,2013-04-07 17:33:00,
2013-04-07 13:43:00,42.0,31.0,30.21,SSW,212,16.0,24.0,66,0.00,,,0.00,,2013-04-07 17:43:00,
2013-04-07 13:53:00,42.0,33.0,30.19,SW,229,11.0,22.0,69,0.00,,,0.00,,2013-04-07 17:53:00,
2013-04-07 14:03:00,41.0,32.0,30.19,SW,233,11.0,22.0,70,0.00,,,0.00,,2013-04-07 18:03:00,
2013-04-07 14:14:00,41.0,32.0,30.19,SW,233,11.0,22.0,70,0.00,,,0.00,,2013-04-07 18:14:00,
2013-04-07 14:23:00,42.0,34.0,30.19,SW,224,10.0,25.0,72,0.00,,,0.00,,2013-04-07 18:23:00,
2013-04-07 14:33:00,42.0,33.0,30.19,SSW,209,12.0,24.0,71,0.00,,,0.00,,2013-04-07 18:33:00,
2013-04-07 14:43:00,42.0,33.0,30.19,SSW,209,12.0,24.0,71,0.00,,,0.00,,2013-04-07 18:43:00,
2013-04-07 14:52:00,43.0,34.0,30.18,West,275,13.0,31.0,70,0.00,,,0.00,,2013-04-07 18:52:00,
2013-04-07 15:03:00,44.0,34.0,30.17,SW,225,13.0,23.0,68,0.00,,,0.00,,2013-04-07 19:03:00,
2013-04-07 15:13:00,44.0,34.0,30.17,SW,225,13.0,23.0,68,0.00,,,0.00,,2013-04-07 19:13:00,
2013-04-07 15:23:00,44.0,35.0,30.16,SW,228,9.0,28.0,70,0.00,,,0.00,,2013-04-07 19:23:00,
2013-04-07 15:33:00,44.0,34.0,30.15,SW,226,13.0,27.0,69,0.00,,,0.00,,2013-04-07 19:33:00,
2013-04-07 15:43:00,44.0,34.0,30.15,SW,226,13.0,27.0,69,0.00,,,0.00,,2013-04-07 19:43:00,
2013-04-07 15:53:00,42.0,34.0,30.14,WSW,243,18.0,28.0,72,0.00,,,0.00,,2013-04-07 19:53:00,
2013-04-07 16:03:00,43.0,35.0,30.13,SW,230,14.0,26.0,74,0.00,,,0.00,,2013-04-07 20:03:00,
2013-04-07 16:13:00,43.0,35.0,30.13,SW,230,14.0,26.0,74,0.00,,,0.00,,2013-04-07 20:13:00,
2013-04-07 16:23:00,42.0,35.0,30.12,SW,221,12.0,25.0,75,0.00,,,0.00,,2013-04-07 20:23:00,
2013-04-07 16:33:00,42.0,35.0,30.11,SSW,203,12.0,24.0,76,0.00,,,0.00,,2013-04-07 20:33:00,
2013-04-07 16:43:00,42.0,35.0,30.11,SSW,203,12.0,24.0,76,0.00,,,0.00,,2013-04-07 20:43:00,
2013-04-07 16:52:00,41.0,34.0,30.10,WSW,244,12.0,23.0,77,0.00,,,0.00,,2013-04-07 20:52:00,
2013-04-07 17:04:00,41.0,34.0,30.10,SW,224,11.0,24.0,77,0.00,,,0.00,,2013-04-07 21:04:00,
2013-04-07 17:13:00,41.0,34.0,30.10,SW,224,11.0,24.0,77,0.00,,,0.00,,2013-04-07 21:13:00,
2013-04-07 17:23:00,41.0,34.0,30.09,SW,229,14.0,26.0,77,0.00,,,0.00,,2013-04-07 21:23:00,
2013-04-07 17:34:00,42.0,35.0,30.09,SW,222,16.0,28.0,75,0.00,,,0.00,,2013-04-07 21:34:00,
2013-04-07 17:44:00,42.0,35.0,30.09,SW,222,16.0,28.0,75,0.00,,,0.00,,2013-04-07 21:44:00,
2013-04-07 17:53:00,42.0,35.0,30.08,SW,235,12.0,23.0,75,0.00,,,0.00,,2013-04-07 21:53:00,
2013-04-07 18:14:00,42.0,35.0,30.07,SW,221,14.0,25.0,76,0.00,,,0.00,,2013-04-07 22:14:00,
2013-04-07 18:24:00,41.0,35.0,30.06,WSW,248,15.0,28.0,78,0.00,,,0.00,,2013-04-07 22:24:00,
2013-04-07 18:34:00,40.0,34.0,30.06,SSW,207,11.0,25.0,79,0.00,,,0.00,,2013-04-07 22:34:00,
2013-04-07 18:43:00,40.0,34.0,30.06,SSW,207,11.0,25.0,79,0.00,,,0.00,,2013-04-07 22:43:00,
2013-04-07 18:53:00,40.0,34.0,30.06,SW,216,16.0,25.0,79,0.00,,,0.00,,2013-04-07 22:53:00,
2013-04-07 19:04:00,40.0,34.0,30.06,SSW,212,15.0,28.0,79,0.00,,,0.00,,2013-04-07 23:04:00,
2013-04-07 19:13:00,40.0,34.0,30.06,SSW,212,15.0,28.0,79,0.00,,,0.00,,2013-04-07 23:13:00,
2013-04-07 19:23:00,40.0,34.0,30.06,WSW,237,12.0,26.0,80,0.00,,,0.00,,2013-04-07 23:23:00,
2013-04-07 19:33:00,40.0,34.0,30.06,SW,229,10.0,24.0,79,0.00,,,0.00,,2013-04-07 23:33:00,
2013-04-07 19:43:00,40.0,34.0,30.06,SW,229,10.0,24.0,79,0.00,,,0.00,,2013-04-07 23:43:00,
2013-04-07 19:52:00,40.0,34.0,30.06,SW,230,12.0,24.0,79,0.00,,,0.00,,2013-04-07 23:52:00,
2013-04-07 20:03:00,40.0,34.0,30.07,SW,227,10.0,24.0,79,0.00,,,0.00,,2013-04-08 00:03:00,
2013-04-07 20:13:00,40.0,34.0,30.07,SW,227,10.0,24.0,79,0.00,,,0.00,,2013-04-08 00:13:00,
2013-04-07 20:23:00,41.0,35.0,30.06,SW,231,11.0,23.0,80,0.00,,,0.00,,2013-04-08 00:23:00,
2013-04-07 20:33:00,41.0,35.0,30.05,SW,225,11.0,23.0,80,0.00,,,0.00,,2013-04-08 00:33:00,
2013-04-07 20:42:00,41.0,35.0,30.05,SW,225,11.0,23.0,80,0.00,,,0.00,,2013-04-08 00:42:00,
2013-04-07 20:52:00,41.0,36.0,30.04,WSW,244,15.0,23.0,82,0.00,,,0.00,,2013-04-08 00:52:00,
2013-04-07 21:03:00,41.0,36.0,30.04,SW,227,13.0,24.0,82,0.00,,,0.00,,2013-04-08 01:03:00,
2013-04-07 21:12:00,41.0,36.0,30.04,SW,227,13.0,24.0,82,0.00,,,0.00,,2013-04-08 01:12:00,
2013-04-07 21:23:00,41.0,37.0,30.03,SW,217,13.0,22.0,85,0.00,,,0.00,,2013-04-08 01:23:00,
2013-04-07 21:34:00,41.0,37.0,30.04,WSW,251,13.0,22.0,87,0.00,,,0.00,,2013-04-08 01:34:00,
2013-04-07 21:44:00,41.0,37.0,30.04,WSW,251,13.0,22.0,87,0.00,,,0.00,,2013-04-08 01:44:00,
2013-04-07 21:54:00,41.0,38.0,30.03,SW,225,15.0,25.0,89,0.01,,,0.01,,2013-04-08 01:54:00,
2013-04-07 22:03:00,41.0,38.0,30.03,WSW,244,13.0,24.0,90,0.01,,,0.01,,2013-04-08 02:03:00,
2013-04-07 22:12:00,41.0,38.0,30.03,WSW,244,13.0,24.0,90,0.01,,,0.01,,2013-04-08 02:12:00,
2013-04-07 22:22:00,41.0,38.0,30.02,WSW,243,11.0,28.0,89,0.01,,,0.01,,2013-04-08 02:22:00,
2013-04-07 22:33:00,41.0,38.0,30.01,SW,222,14.0,27.0,88,0.01,,,0.01,,2013-04-08 02:33:00,
2013-04-07 22:47:00,41.0,38.0,30.01,SW,222,14.0,27.0,88,0.01,,,0.01,,2013-04-08 02:47:00,
2013-04-07 22:53:00,41.0,38.0,29.99,SW,225,18.0,33.0,88,0.00,,,0.01,,2013-04-08 02:53:00,
2013-04-07 23:08:00,42.0,39.0,29.98,SW,233,17.0,31.0,88,0.00,,,0.01,,2013-04-08 03:08:00,
2013-04-07 23:15:00,42.0,39.0,29.98,SW,233,17.0,31.0,88,0.00,,,0.01,,2013-04-08 03:15:00,
2013-04-07 23:25:00,42.0,39.0,29.98,WSW,252,14.0,29.0,88,0.00,,,0.01,,2013-04-08 03:25:00,
2013-04-07 23:36:00,42.0,39.0,29.97,South,177,16.0,32.0,88,0.00,,,0.01,,2013-04-08 03:36:00,
2013-04-07 23:47:00,42.0,39.0,29.97,South,177,16.0,32.0,88,0.00,,,0.01,,2013-04-08 03:47:00,
2013-04-07 23:53:00,42.0,39.0,29.98,WSW,244,16.0,26.0,89,0.00,,,0.01,,2013-04-08 03:53:00,